Time,TemperatureF,DewpointF,PressureIn,WindDirection,WindDirectionDegrees,WindSpeedMPH,WindSpeedGustMPH,Humidity,HourlyPrecipIn,Conditions,Clouds,dailyrainin,SolarRadiationWatts/m^2,SoftwareType,DateUTC
2013-04-09 00:02:00,45.0,43.0,-100.00,NE,53,6.0,8.0,92,0.00,,,0.08,0.000000,,2013-04-09 07:02:00,
2013-04-09 00:12:00,45.0,43.0,-100.00,NE,53,6.0,8.0,92,0.00,,,0.08,0.000000,,2013-04-09 07:12:00,
2013-04-09 00:32:00,43.0,41.0,-100.00,ENE,69,4.0,7.0,94,0.00,,,-99.99,0.000000,,2013-04-09 07:32:00,
2013-04-09 00:42:00,43.0,41.0,-100.00,ENE,69,4.0,7.0,94,0.00,,,-99.99,0.000000,,2013-04-09 07:42:00,
2013-04-09 00:52:00,43.0,41.0,-100.00,ENE,69,4.0,7.0,94,0.00,,,-99.99,0.000000,,2013-04-09 07:52:00,
2013-04-09 01:02:00,43.0,41.0,-100.00,ENE,69,4.0,7.0,94,0.00,,,-99.99,0.000000,,2013-04-09 08:02:00,
2013-04-09 01:12:00,43.0,41.0,-100.00,ENE,69,4.0,7.0,94,0.00,,,-99.99,0.000000,,2013-04-09 08:12:00,
2013-04-09 01:42:00,43.0,40.0,-100.00,NE,43,3.0,6.0,88,0.00,,,0.08,0.000000,,2013-04-09 08:42:00,
2013-04-09 01:52:00,43.0,40.0,-100.00,NE,43,3.0,6.0,88,0.00,,,0.08,0.000000,,2013-04-09 08:52:00,
2013-04-09 02:02:00,43.0,40.0,-100.00,NE,43,3.0,6.0,88,0.00,,,0.08,0.000000,,2013-04-09 09:02:00,
2013-04-09 02:12:00,43.0,40.0,-100.00,NE,43,3.0,6.0,88,0.00,,,0.08,0.000000,,2013-04-09 09:12:00,
2013-04-09 02:44:00,42.0,40.0,-100.00,NE,50,3.0,5.0,94,0.00,,,0.08,0.000000,,2013-04-09 09:44:00,
2013-04-09 02:52:00,42.0,40.0,-100.00,NE,50,3.0,5.0,94,0.00,,,0.08,0.000000,,2013-04-09 09:52:00,
2013-04-09 03:03:00,42.0,40.0,-100.00,NE,50,3.0,5.0,94,0.00,,,0.08,0.000000,,2013-04-09 10:03:00,
2013-04-09 03:12:00,42.0,40.0,-100.00,NE,50,3.0,5.0,94,0.00,,,0.08,0.000000,,2013-04-09 10:12:00,
2013-04-09 03:33:00,42.0,40.0,-100.00,ENE,63,6.0,8.0,91,0.00,,,0.08,0.000000,,2013-04-09 10:33:00,
2013-04-09 03:43:00,42.0,40.0,-100.00,ENE,63,6.0,8.0,91,0.00,,,0.08,0.000000,,2013-04-09 10:43:00,
2013-04-09 03:53:00,42.0,40.0,-100.00,ENE,63,6.0,8.0,91,0.00,,,0.08,0.000000,,2013-04-09 10:53:00,
2013-04-09 04:02:00,42.0,40.0,-100.00,ENE,63,6.0,8.0,91,0.00,,,0.08,0.000000,,2013-04-09 11:02:00,
2013-04-09 04:12:00,42.0,40.0,-100.00,ENE,63,6.0,8.0,91,0.00,,,0.08,0.000000,,2013-04-09 11:12:00,
2013-04-09 04:32:00,44.0,39.0,-100.00,NE,34,5.0,9.0,83,0.00,,,0.08,0.000000,,2013-04-09 11:32:00,
2013-04-09 04:42:00,44.0,39.0,-100.00,NE,34,5.0,9.0,83,0.00,,,0.08,0.000000,,2013-04-09 11:42:00,
2013-04-09 04:52:00,44.0,39.0,-100.00,NE,34,5.0,9.0,83,0.00,,,0.08,0.000000,,2013-04-09 11:52:00,
2013-04-09 05:02:00,44.0,39.0,-100.00,NE,34,5.0,9.0,83,0.00,,,0.08,0.000000,,2013-04-09 12:02:00,
2013-04-09 05:12:00,44.0,39.0,-100.00,NE,34,5.0,9.0,83,0.00,,,0.08,0.000000,,2013-04-09 12:12:00,
2013-04-09 05:33:00,40.0,38.0,-100.00,NE,34,3.0,7.0,91,0.00,,,0.08,0.000000,,2013-04-09 12:33:00,
2013-04-09 05:43:00,40.0,38.0,-100.00,NE,34,3.0,7.0,91,0.00,,,0.08,0.000000,,2013-04-09 12:43:00,
2013-04-09 05:53:00,40.0,38.0,-100.00,NE,34,3.0,7.0,91,0.00,,,0.08,0.000000,,2013-04-09 12:53:00,
2013-04-09 06:02:00,40.0,38.0,-100.00,NE,34,3.0,7.0,91,0.00,,,0.08,0.000000,,2013-04-09 13:02:00,
2013-04-09 06:12:00,40.0,38.0,-100.00,NE,34,3.0,7.0,91,0.00,,,0.08,0.000000,,2013-04-09 13:12:00,
2013-04-09 06:33:00,40.0,36.0,-100.00,NE,55,2.0,5.0,85,0.00,,,0.08,0.000000,,2013-04-09 13:33:00,
2013-04-09 06:43:00,40.0,36.0,-100.00,NE,55,2.0,5.0,85,0.00,,,0.08,0.000000,,2013-04-09 13:43:00,
2013-04-09 06:53:00,40.0,36.0,-100.00,NE,55,2.0,5.0,85,0.00,,,0.08,0.000000,,2013-04-09 13:53:00,
2013-04-09 07:02:00,40.0,36.0,-100.00,NE,55,2.0,5.0,85,0.00,,,0.08,0.000000,,2013-04-09 14:02:00,
2013-04-09 07:12:00,40.0,36.0,-100.00,NE,55,2.0,5.0,85,0.00,,,0.08,0.000000,,2013-04-09 14:12:00,
2013-04-09 07:43:00,40.0,36.0,-100.00,SE,139,2.0,5.0,85,0.00,,,0.07,13.000000,,2013-04-09 14:43:00,
2013-04-09 07:52:00,40.0,36.0,-100.00,SE,139,2.0,5.0,85,0.00,,,0.07,13.000000,,2013-04-09 14:52:00,
2013-04-09 08:02:00,40.0,36.0,-100.00,SE,139,2.0,5.0,85,0.00,,,0.07,13.000000,,2013-04-09 15:02:00,
2013-04-09 08:12:00,40.0,36.0,-100.00,SE,139,2.0,5.0,85,0.00,,,0.07,13.000000,,2013-04-09 15:12:00,
2013-04-09 08:34:00,51.0,43.0,-100.00,ENE,73,2.0,4.0,73,0.00,,,0.07,203.000000,,2013-04-09 15:34:00,
2013-04-09 08:43:00,51.0,43.0,-100.00,ENE,73,2.0,4.0,73,0.00,,,0.07,203.000000,,2013-04-09 15:43:00,
2013-04-09 08:53:00,51.0,43.0,-100.00,ENE,73,2.0,4.0,73,0.00,,,0.07,203.000000,,2013-04-09 15:53:00,
2013-04-09 09:03:00,51.0,43.0,-100.00,ENE,73,2.0,4.0,73,0.00,,,0.07,203.000000,,2013-04-09 16:03:00,
2013-04-09 09:12:00,51.0,43.0,-100.00,ENE,73,2.0,4.0,73,0.00,,,0.07,203.000000,,2013-04-09 16:12:00,
2013-04-09 09:34:00,53.0,35.0,-100.00,South,172,10.0,16.0,51,0.00,,,-99.99,413.000000,,2013-04-09 16:34:00,
2013-04-09 09:42:00,53.0,35.0,-100.00,South,172,10.0,16.0,51,0.00,,,-99.99,413.000000,,2013-04-09 16:42:00,
2013-04-09 09:53:00,53.0,35.0,-100.00,South,172,10.0,16.0,51,0.00,,,-99.99,413.000000,,2013-04-09 16:53:00,
2013-04-09 10:02:00,53.0,35.0,-100.00,South,172,10.0,16.0,51,0.00,,,-99.99,413.000000,,2013-04-09 17:02:00,
2013-04-09 10:12:00,53.0,35.0,-100.00,South,172,10.0,16.0,51,0.00,,,-99.99,413.000000,,2013-04-09 17:12:00,
2013-04-09 10:33:00,57.0,36.0,-100.00,SSW,197,8.0,13.0,46,0.00,,,0.06,611.000000,,2013-04-09 17:33:00,
2013-04-09 10:43:00,57.0,36.0,-100.00,SSW,197,8.0,13.0,46,0.00,,,0.06,611.000000,,2013-04-09 17:43:00,
2013-04-09 10:53:00,57.0,36.0,-100.00,SSW,197,8.0,13.0,46,0.00,,,0.06,611.000000,,2013-04-09 17:53:00,
2013-04-09 11:02:00,57.0,36.0,-100.00,SSW,197,8.0,13.0,46,0.00,,,0.06,611.000000,,2013-04-09 18:02:00,
2013-04-09 11:12:00,57.0,36.0,-100.00,SSW,197,8.0,13.0,46,0.00,,,0.06,611.000000,,2013-04-09 18:12:00,
2013-04-09 11:33:00,59.0,37.0,-100.00,SW,216,7.0,16.0,44,0.00,,,0.05,771.000000,,2013-04-09 18:33:00,
2013-04-09 11:43:00,59.0,37.0,-100.00,SW,216,7.0,16.0,44,0.00,,,0.05,771.000000,,2013-04-09 18:43:00,
2013-04-09 11:53:00,59.0,37.0,-100.00,SW,216,7.0,16.0,44,0.00,,,0.05,771.000000,,2013-04-09 18:53:00,
2013-04-09 12:02:00,59.0,37.0,-100.00,SW,216,7.0,16.0,44,0.00,,,0.05,771.000000,,2013-04-09 19:02:00,
2013-04-09 12:11:00,59.0,37.0,-100.00,SW,216,7.0,16.0,44,0.00,,,0.05,771.000000,,2013-04-09 19:11:00,
2013-04-09 12:52:00,60.0,34.0,-100.00,SSW,213,7.0,15.0,37,0.00,,,0.05,878.000000,,2013-04-09 19:52:00,
2013-04-09 13:02:00,60.0,34.0,-100.00,SSW,213,7.0,15.0,37,0.00,,,0.05,878.000000,,2013-04-09 20:02:00,
2013-04-09 13:12:00,60.0,34.0,-100.00,SSW,213,7.0,15.0,37,0.00,,,0.05,878.000000,,2013-04-09 20:12:00,
2013-04-09 13:44:00,63.0,32.0,-100.00,SW,219,7.0,15.0,31,0.00,,,0.00,917.000000,,2013-04-09 20:44:00,
2013-04-09 13:52:00,63.0,32.0,-100.00,SW,219,7.0,15.0,31,0.00,,,0.00,917.000000,,2013-04-09 20:52:00,
2013-04-09 14:02:00,63.0,32.0,-100.00,SW,219,7.0,15.0,31,0.00,,,0.00,917.000000,,2013-04-09 21:02:00,
2013-04-09 14:12:00,63.0,32.0,-100.00,SW,219,7.0,15.0,31,0.00,,,0.00,917.000000,,2013-04-09 21:12:00,
2013-04-09 14:53:00,64.0,30.0,-100.00,SW,215,6.0,15.0,28,0.00,,,0.00,895.000000,,2013-04-09 21:53:00,
2013-04-09 15:02:00,64.0,30.0,-100.00,SW,215,6.0,15.0,28,0.00,,,0.00,895.000000,,2013-04-09 22:02:00,
2013-04-09 15:12:00,64.0,30.0,-100.00,SW,215,6.0,15.0,28,0.00,,,0.00,895.000000,,2013-04-09 22:12:00,
2013-04-09 15:33:00,65.0,29.0,-100.00,SSW,204,6.0,13.0,26,0.00,,,-99.99,809.000000,,2013-04-09 22:33:00,
2013-04-09 15:43:00,65.0,29.0,-100.00,SSW,204,6.0,13.0,26,0.00,,,-99.99,809.000000,,2013-04-09 22:43:00,
2013-04-09 15:53:00,65.0,29.0,-100.00,SSW,204,6.0,13.0,26,0.00,,,-99.99,809.000000,,2013-04-09 22:53:00,
2013-04-09 16:02:00,65.0,29.0,-100.00,SSW,204,6.0,13.0,26,0.00,,,-99.99,809.000000,,2013-04-09 23:02:00,
2013-04-09 16:12:00,65.0,29.0,-100.00,SSW,204,6.0,13.0,26,0.00,,,-99.99,809.000000,,2013-04-09 23:12:00,
2013-04-09 16:33:00,66.0,27.0,-100.00,SW,230,5.0,11.0,23,0.00,,,0.00,667.000000,,2013-04-09 23:33:00,
2013-04-09 16:42:00,66.0,27.0,-100.00,SW,230,5.0,11.0,23,0.00,,,0.00,667.000000,,2013-04-09 23:42:00,
2013-04-09 16:53:00,66.0,27.0,-100.00,SW,230,5.0,11.0,23,0.00,,,0.00,667.000000,,2013-04-09 23:53:00,
2013-04-09 17:02:00,66.0,27.0,-100.00,SW,230,5.0,11.0,23,0.00,,,0.00,667.000000,,2013-04-10 00:02:00,
2013-04-09 17:11:00,66.0,27.0,-100.00,SW,230,5.0,11.0,23,0.00,,,0.00,667.000000,,2013-04-10 00:11:00,
2013-04-09 17:43:00,66.0,25.0,-100.00,WSW,240,4.0,8.0,21,0.00,,,-99.99,481.000000,,2013-04-10 00:43:00,
2013-04-09 17:52:00,66.0,25.0,-100.00,WSW,240,4.0,8.0,21,0.00,,,-99.99,481.000000,,2013-04-10 00:52:00,
2013-04-09 18:02:00,66.0,25.0,-100.00,WSW,240,4.0,8.0,21,0.00,,,-99.99,481.000000,,2013-04-10 01:02:00,
2013-04-09 18:11:00,66.0,25.0,-100.00,WSW,240,4.0,8.0,21,0.00,,,-99.99,481.000000,,2013-04-10 01:11:00,
2013-04-09 18:33:00,65.0,25.0,-100.00,West,267,5.0,10.0,22,0.00,,,-99.99,276.000000,,2013-04-10 01:33:00,
2013-04-09 18:43:00,65.0,25.0,-100.00,West,267,5.0,10.0,22,0.00,,,-99.99,276.000000,,2013-04-10 01:43:00,
2013-04-09 18:53:00,65.0,25.0,-100.00,West,267,5.0,10.0,22,0.00,,,-99.99,276.000000,,2013-04-10 01:53:00,
2013-04-09 19:02:00,65.0,25.0,-100.00,West,267,5.0,10.0,22,0.00,,,-99.99,276.000000,,2013-04-10 02:02:00,
2013-04-09 19:12:00,65.0,25.0,-100.00,West,267,5.0,10.0,22,0.00,,,-99.99,276.000000,,2013-04-10 02:12:00,
2013-04-09 19:33:00,59.0,27.0,-100.00,WSW,241,4.0,7.0,29,0.00,,,0.00,75.000000,,2013-04-10 02:33:00,
2013-04-09 19:43:00,59.0,27.0,-100.00,WSW,241,4.0,7.0,29,0.00,,,0.00,75.000000,,2013-04-10 02:43:00,
2013-04-09 19:52:00,59.0,27.0,-100.00,WSW,241,4.0,7.0,29,0.00,,,0.00,75.000000,,2013-04-10 02:52:00,
2013-04-09 20:02:00,59.0,27.0,-100.00,WSW,241,4.0,7.0,29,0.00,,,0.00,75.000000,,2013-04-10 03:02:00,
2013-04-09 20:12:00,59.0,27.0,-100.00,WSW,241,4.0,7.0,29,0.00,,,0.00,75.000000,,2013-04-10 03:12:00,
2013-04-09 20:13:00,51.0,31.0,-100.00,ENE,58,5.0,7.0,46,0.00,,,0.00,2.000000,,2013-04-10 03:13:00,
2013-04-09 20:43:00,51.0,31.0,-100.00,ENE,58,5.0,7.0,46,0.00,,,0.00,2.000000,,2013-04-10 03:43:00,
2013-04-09 20:53:00,51.0,31.0,-100.00,ENE,58,5.0,7.0,46,0.00,,,0.00,2.000000,,2013-04-10 03:53:00,
2013-04-09 21:03:00,51.0,31.0,-100.00,ENE,58,5.0,7.0,46,0.00,,,0.00,2.000000,,2013-04-10 04:03:00,
2013-04-09 21:43:00,50.0,33.0,-100.00,ENE,74,6.0,8.0,51,0.00,,,0.00,0.000000,,2013-04-10 04:43:00,
2013-04-09 21:53:00,50.0,33.0,-100.00,ENE,74,6.0,8.0,51,0.00,,,0.00,0.000000,,2013-04-10 04:53:00,
2013-04-09 22:02:00,50.0,33.0,-100.00,ENE,74,6.0,8.0,51,0.00,,,0.00,0.000000,,2013-04-10 05:02:00,
2013-04-09 22:12:00,50.0,33.0,-100.00,ENE,74,6.0,8.0,51,0.00,,,0.00,0.000000,,2013-04-10 05:12:00,
2013-04-09 22:33:00,50.0,34.0,-100.00,ENE,60,1.0,7.0,54,0.00,,,0.00,0.000000,,2013-04-10 05:33:00,
2013-04-09 22:43:00,50.0,34.0,-100.00,ENE,60,1.0,7.0,54,0.00,,,0.00,0.000000,,2013-04-10 05:43:00,
2013-04-09 22:53:00,50.0,34.0,-100.00,ENE,60,1.0,7.0,54,0.00,,,0.00,0.000000,,2013-04-10 05:53:00,
2013-04-09 23:02:00,50.0,34.0,-100.00,ENE,60,1.0,7.0,54,0.00,,,0.00,0.000000,,2013-04-10 06:02:00,
2013-04-09 23:12:00,50.0,34.0,-100.00,ENE,60,1.0,7.0,54,0.00,,,0.00,0.000000,,2013-04-10 06:12:00,
2013-04-09 23:42:00,50.0,33.0,-100.00,ENE,68,1.0,6.0,52,0.00,,,0.00,0.000000,,2013-04-10 06:42:00,
2013-04-09 23:52:00,50.0,33.0,-100.00,ENE,68,1.0,6.0,52,0.00,,,0.00,0.000000,,2013-04-10 06:52:00,